Change the Weather History Date:

Monday, January 27, 2014

  Actual Average Record
Temperature  
Mean Temperature 38 °F -  
Max Temperature 41 °F 44 °F 55 °F (2002)
Min Temperature 35 °F 34 °F 23 °F (1998)
Degree Days  
Heating Degree Days 27    
Moisture  
Dew Point 35 °F    
Average Humidity 85    
Maximum Humidity 93    
Minimum Humidity 58    
Precipitation  
Precipitation 0.12 in - - ()
Sea Level Pressure  
Sea Level Pressure 29.35 in    
Wind  
Wind Speed 13 mph ()    
Max Wind Speed 21 mph    
Max Gust Speed -    
Visibility 8.2 miles    
Events Rain    
Averages and records for this station are not official NWS values.
T = Trace of Precipitation, MM = Missing Value Source: Averaged Metar Reports

Daily Weather History Graph

Daily Weather History Graph

Search for Another Location

Airport or City:

Trip Planner

Search our weather history database for the weather conditions in past years. The results will help you decide how hot, cold, wet, or windy it might be!

Date:

Astronomy

Jan. 27, 2014 Rise Set
Actual Time 8:30 AM CET 5:31 PM CET
Civil Twilight 7:54 AM CET 6:07 PM CET
Nautical Twilight 7:14 AM CET 6:47 PM CET
Astronomical Twilight 6:35 AM CET 7:25 PM CET
Moon 4:59 AM CET (1/27) 1:57 PM CET (1/27)
Length of Visible Light 10h 13m
Length of Day
9h 01m
Waning Crescent, 17% of the Moon is Illuminated
Jan 27
Waning Crescent
Jan 30
New
Feb 6
First Quarter
Feb 15
Full
Feb 22
Last Quarter

Hourly Weather History & Observations

Time (CET) Temp. Windchill Dew Point Humidity Pressure Visibility Wind Dir Wind Speed Gust Speed Precip Events Conditions
12:00 AM 43 °F - 33 °F 58% 29.36 in 19 mi West 13.8 mph - -   Mostly Cloudy
12:00 AM 42.8 °F 35.8 °F 33.8 °F 70% 29.33 in 6.2 mi West 13.8 mph - N/A   Mostly Cloudy
12:30 AM 42.8 °F 34.8 °F 33.8 °F 70% 29.36 in 6.2 mi West 17.3 mph - N/A   Mostly Cloudy
1:00 AM 42 °F - 33 °F 60% 29.38 in 19 mi West 16.1 mph - -   Partly Cloudy
1:00 AM 41.0 °F 32.8 °F 32.0 °F 70% 29.36 in 6.2 mi West 16.1 mph - N/A   Mostly Cloudy
1:30 AM 39.2 °F 32.0 °F 32.0 °F 75% 29.36 in 6.2 mi West 11.5 mph - N/A   Unknown
2:00 AM 39 °F - 32 °F 67% 29.39 in 25 mi West 9.2 mph - -   Clear
2:00 AM 39.2 °F 33.0 °F 32.0 °F 75% 29.36 in 6.2 mi West 9.2 mph - N/A   Partly Cloudy
2:30 AM 39.2 °F 32.0 °F 32.0 °F 75% 29.36 in 6.2 mi WSW 11.5 mph - N/A   Unknown
3:00 AM 39 °F - 31 °F 65% 29.39 in 22 mi West 11.5 mph - -   Clear
3:00 AM 39.2 °F 32.0 °F 32.0 °F 75% 29.36 in 6.2 mi West 11.5 mph - N/A   Unknown
3:30 AM 39.2 °F 33.0 °F 32.0 °F 75% 29.39 in 6.2 mi SW 9.2 mph - N/A   Unknown
4:00 AM 38 °F - 32 °F 70% 29.38 in 22 mi SW 12.7 mph - -   Clear
4:00 AM 39.2 °F 31.6 °F 32.0 °F 75% 29.36 in 6.2 mi SW 12.7 mph - N/A   Mostly Cloudy
4:49 AM 39.2 °F 32.0 °F 33.8 °F 81% 29.39 in 6.2 mi SW 11.5 mph - N/A Rain Light Rain Showers
5:00 AM 38 °F - 33 °F 77% 29.39 in 19 mi SW 11.5 mph - - Rain Light Rain Showers
5:00 AM 37.4 °F 29.8 °F 33.8 °F 87% 29.39 in 6.2 mi SW 11.5 mph - N/A   Mostly Cloudy
5:30 AM 39.2 °F 32.5 °F 33.8 °F 81% 29.39 in 6.2 mi WSW 10.4 mph - N/A   Mostly Cloudy
6:00 AM 37 °F - 34 °F 83% 29.40 in 12 mi WSW 11.5 mph - - Rain Light Rain Showers
6:00 AM 37.4 °F 29.3 °F 33.8 °F 87% 29.39 in 6.2 mi WSW 12.7 mph - N/A   Mostly Cloudy
6:30 AM 37.4 °F 30.8 °F 33.8 °F 87% 29.39 in 6.2 mi SW 9.2 mph - N/A   Mostly Cloudy
7:00 AM 36 °F - 34 °F 88% 29.41 in 12 mi SW 17.3 mph - - Rain Light Rain
7:00 AM 37.4 °F 27.8 °F 33.8 °F 87% 29.39 in 6.2 mi SW 17.3 mph - N/A Rain Light Rain
7:30 AM 35.6 °F 26.6 °F 33.8 °F 93% 29.39 in 6.2 mi SW 13.8 mph - N/A Rain Light Rain
8:00 AM 36 °F - 34 °F 89% 29.40 in 2 mi SSW 15.0 mph - - Rain Rain
8:00 AM 35.6 °F 26.2 °F 33.8 °F 93% 29.39 in 2.5 mi SSW 15.0 mph - N/A Rain Rain
8:30 AM 35.6 °F 28.0 °F 33.8 °F 93% 29.39 in 6.2 mi SSW 10.4 mph - N/A   Mostly Cloudy
9:00 AM 36 °F - 34 °F 87% 29.39 in 25 mi SSW 12.7 mph - - Rain Light Rain Showers
9:00 AM 35.6 °F 27.1 °F 33.8 °F 93% 29.36 in 6.2 mi SSW 12.7 mph - N/A   Mostly Cloudy
9:30 AM 35.6 °F 24.8 °F 33.8 °F 93% 29.36 in 6.2 mi SSW 19.6 mph - N/A Rain Light Rain Showers
10:00 AM 36 °F - 34 °F 90% 29.38 in 12 mi South 16.1 mph - - Rain Light Rain Showers
10:30 AM 35.6 °F 25.2 °F 33.8 °F 93% 29.36 in 6.2 mi South 18.4 mph - N/A Rain Light Rain Showers
11:00 AM 37 °F - 35 °F 89% 29.37 in 12 mi South 15.0 mph - - Rain Light Rain Showers
11:00 AM 37.4 °F 28.2 °F 35.6 °F 93% 29.36 in 6.2 mi South 16.1 mph - N/A   Mostly Cloudy
11:30 AM 37.4 °F 28.5 °F 35.6 °F 93% 29.36 in 6.2 mi SSW 15.0 mph - N/A   Mostly Cloudy
12:00 PM 38 °F - 35 °F 86% 29.36 in 19 mi SSW 16.1 mph - -   Mostly Cloudy
12:00 PM 39.2 °F 30.5 °F 35.6 °F 87% 29.33 in 6.2 mi SSW 16.1 mph - N/A   Mostly Cloudy
12:30 PM 39.2 °F 29.8 °F 35.6 °F 87% 29.33 in 6.2 mi SSW 18.4 mph - N/A   Mostly Cloudy
1:00 PM 38 °F - 35 °F 85% 29.34 in 19 mi SSW 19.6 mph - -   Partly Cloudy
1:00 PM 37.4 °F 27.5 °F 35.6 °F 93% 29.33 in 6.2 mi SSW 18.4 mph - N/A   Mostly Cloudy
1:30 PM 37.4 °F 28.2 °F 35.6 °F 93% 29.33 in 6.2 mi SSW 16.1 mph - N/A   Mostly Cloudy
2:00 PM 38 °F - 35 °F 87% 29.33 in 19 mi SSW 16.1 mph - -   Mostly Cloudy
2:00 PM 37.4 °F 28.2 °F 35.6 °F 93% 29.30 in 6.2 mi SSW 16.1 mph - N/A   Mostly Cloudy
2:30 PM 37.4 °F 28.2 °F 35.6 °F 93% 29.30 in 6.2 mi SSW 16.1 mph - N/A   Mostly Cloudy
3:00 PM 38 °F - 36 °F 87% 29.32 in 5 mi SSW 15.0 mph - - Rain Light Rain Showers
3:00 PM 37.4 °F 28.5 °F 35.6 °F 93% 29.30 in 5.0 mi SSW 15.0 mph - N/A Rain Light Rain Showers
3:30 PM 39.2 °F 30.2 °F 35.6 °F 87% 29.30 in 6.2 mi SSW 17.3 mph - N/A   Mostly Cloudy
4:00 PM 39 °F - 37 °F 89% 29.32 in 12 mi SSW 12.7 mph - -   Partly Cloudy
4:00 PM 39.2 °F 31.6 °F 37.4 °F 93% 29.30 in 6.2 mi SSW 12.7 mph - N/A   Mostly Cloudy
4:30 PM 39.2 °F 29.8 °F 37.4 °F 93% 29.30 in 6.2 mi SSW 18.4 mph - N/A Rain Light Rain Showers
5:00 PM 40 °F - 37 °F 87% 29.33 in 19 mi SW 17.3 mph - - Rain Light Rain Showers
5:00 PM 41.0 °F 32.5 °F 37.4 °F 87% 29.30 in 6.2 mi SW 17.3 mph - N/A   Mostly Cloudy
5:30 PM 41.0 °F 33.1 °F 37.4 °F 87% 29.33 in 6.2 mi SW 15.0 mph - N/A   Mostly Cloudy
6:00 PM 39 °F - 37 °F 88% 29.34 in 19 mi SW 11.5 mph - - Rain Light Rain Showers
6:00 PM 39.2 °F 32.0 °F 37.4 °F 93% 29.33 in 6.2 mi SW 11.5 mph - N/A   Mostly Cloudy
6:30 PM 39.2 °F 31.6 °F 37.4 °F 93% 29.33 in 6.2 mi SSW 12.7 mph - N/A   Mostly Cloudy
7:00 PM 40 °F - 37 °F 84% 29.35 in 5 mi SW 20.7 mph - - Rain Light Rain Showers
7:00 PM 41.0 °F 31.6 °F 37.4 °F 87% 29.33 in 5.0 mi SW 20.7 mph - N/A Rain Light Rain Showers
7:30 PM 39.2 °F 29.8 °F 35.6 °F 87% 29.33 in 3.7 mi SW 18.4 mph - N/A Rain Light Rain Showers
8:00 PM 39 °F - 37 °F 90% 29.35 in 9 mi SSW 13.8 mph - - Rain Light Rain Showers
8:00 PM 39.2 °F 30.5 °F 37.4 °F 93% 29.33 in 6.2 mi SSW 16.1 mph - N/A   Mostly Cloudy
8:30 PM 39.2 °F 31.2 °F 37.4 °F 93% 29.33 in 6.2 mi SSW 13.8 mph - N/A   Mostly Cloudy
9:00 PM 39 °F - 36 °F 84% 29.35 in 12 mi SW 16.1 mph - -   Mostly Cloudy
9:00 PM 39.2 °F 30.5 °F 35.6 °F 87% 29.33 in 6.2 mi SW 16.1 mph - N/A   Scattered Clouds
9:30 PM 39.2 °F 32.0 °F 35.6 °F 87% 29.33 in 6.2 mi SSW 11.5 mph - N/A   Scattered Clouds
10:00 PM 39 °F - 36 °F 83% 29.37 in 12 mi SSW 11.5 mph - -   Partly Cloudy
10:00 PM 39.2 °F 32.0 °F 35.6 °F 87% 29.36 in 6.2 mi SSW 11.5 mph - N/A   Mostly Cloudy
10:30 PM 39.2 °F 32.0 °F 35.6 °F 87% 29.36 in 6.2 mi SSW 11.5 mph - N/A   Mostly Cloudy
11:00 PM 39 °F - 36 °F 85% 29.37 in 12 mi SSW 9.2 mph - - Rain Light Rain Showers
11:00 PM 39.2 °F 33.0 °F 35.6 °F 87% 29.36 in 6.2 mi SSW 9.2 mph - N/A Rain Light Rain Showers
11:30 PM 39.2 °F 31.6 °F 35.6 °F 87% 29.36 in 6.2 mi South 12.7 mph - N/A   Mostly Cloudy